IW6NXR-13 Weather Reports


time (UTC)temp
C
wind
direction
speed
KPH
gust
KPH
rain 1hr
cm
rain 24hr
cm
rain mn
cm
humidity
%
barometer
mb
20260503224907 10 0.0 0.0 0.00 0.00 0.00 1017.7
20260503222906 10 0.0 0.0 0.00 0.00 0.00 1017.7
20260503220906 10 0.0 0.0 0.00 0.00 0.00 1017.6
20260503214906 11 0.0 0.0 0.00 0.00 0.00 1017.5
20260503212905 13 0.0 0.0 0.00 0.00 0.00 1017.2
20260503210905 13 0.0 0.0 0.00 0.00 0.00 1017.2
20260503204905 13 0.0 0.0 0.00 0.00 0.00 1017.3
20260503202904 13 0.0 0.0 0.00 0.00 0.00 1017.3
20260503200904 13 0.0 0.0 0.00 0.00 0.00 1017.4
20260503194904 13 0.0 0.0 0.00 0.00 0.00 1017.4
20260503192903 12 0.0 0.0 0.00 0.00 0.00 1017.3
20260503190903 12 0.0 0.0 0.00 0.00 0.00 1017.3
20260503184903 12 0.0 0.0 0.00 0.00 0.00 1017.2
20260503182902 13 0.0 0.0 0.00 0.00 0.00 1016.9
20260503180902 13 0.0 0.0 0.00 0.00 0.00 1016.7
20260503174902 15 0.0 0.0 0.00 0.00 0.00 1016.6
20260503172901 17 0.0 0.0 0.00 0.00 0.00 1016.6
20260503170901 18 0.0 0.0 0.00 0.00 0.00 1016.5
20260503150859 20 0.0 0.0 0.00 0.00 0.00 1016.7
20260503130857 22 0.0 0.0 0.00 0.00 0.00 1017.5
20260503080852 37 0.0 0.0 0.00 0.00 0.00 1019.1
20260503072852 36 0.0 0.0 0.00 0.00 0.00 1019.2
20260503070851 35 0.0 0.0 0.00 0.00 0.00 1019.3
20260503054850 27 0.0 0.0 0.00 0.00 0.00 1019.5
20260503052850 27 0.0 0.0 0.00 0.00 0.00 1019.5
20260503050850 24 0.0 0.0 0.00 0.00 0.00 1019.5
20260503044849 19 0.0 0.0 0.00 0.00 0.00 1019.6
20260503042849 13 0.0 0.0 0.00 0.00 0.00 1019.7
20260503040849 10 0.0 0.0 0.00 0.00 0.00 1019.9